DW0231 Weather Reports


Display with metric or nautical units.
time (UTC)temp
F
wind
direction
speed
MPH
gust
MPH
rain 1hr
in
rain 24hr
in
rain mn
in
humidity
%
barometer
mb
20260906103126 76 211 2.0 0.0 0.00 0.00 0.00 26 1005.7
20260906101609 77 201 4.0 0.0 0.00 0.00 0.00 25 1005.6
20260906100044 77 211 5.0 0.0 0.00 0.00 0.00 24 1005.4
20260906094619 77 205 3.0 0.0 0.00 0.00 0.00 24 1005.4
20260906093105 77 211 6.0 0.0 0.00 0.00 0.00 23 1005.3
20260906091558 77 208 4.0 0.0 0.00 0.00 0.00 23 1005.2
20260906090118 76 201 4.0 0.0 0.00 0.00 0.00 23 1005.2
20260906084606 77 186 4.0 0.0 0.00 0.00 0.00 23 1005.2
20260906083050 77 206 4.0 0.0 0.00 0.00 0.00 23 1005.0
20260906081625 76 196 2.0 0.0 0.00 0.00 0.00 23 1005.0
20260906080116 76 254 3.0 0.0 0.00 0.00 0.00 23 1005.2
20260906074556 76 175 2.0 0.0 0.00 0.00 0.00 24 1005.0
20260906073043 77 192 2.0 0.0 0.00 0.00 0.00 24 1004.8
20260906071504 78 217 4.0 0.0 0.00 0.00 0.00 24 1004.8
20260906070106 78 196 2.0 0.0 0.00 0.00 0.00 24 1005.0
20260906064556 78 211 3.0 0.0 0.00 0.00 0.00 24 1005.0
20260906063028 79 187 4.0 0.0 0.00 0.00 0.00 23 1004.7
20260906061613 80 191 5.0 0.0 0.00 0.00 0.00 22 1004.6
20260906060021 80 235 4.0 0.0 0.00 0.00 0.00 21 1004.6
20260906054612 80 228 5.0 0.0 0.00 0.00 0.00 20 1004.6
20260906053107 80 184 5.0 0.0 0.00 0.00 0.00 20 1004.6
20260906051527 79 198 3.0 0.0 0.00 0.00 0.00 21 1004.6
20260906050016 78 207 3.0 0.0 0.00 0.00 0.00 21 1004.6
20260906044615 78 227 2.0 0.0 0.00 0.00 0.00 21 1004.6
20260906043108 79 222 3.0 0.0 0.00 0.00 0.00 20 1004.6
20260906041603 79 152 4.0 0.0 0.00 0.00 0.00 20 1004.6
20260906040042 77 199 1.0 0.0 0.00 0.00 0.00 22 1004.5
20260906034510 78 237 1.0 0.0 0.00 0.00 0.00 22 1004.3
20260906033116 77 199 1.0 0.0 0.00 0.00 0.00 23 1004.4
20260906031536 78 203 1.0 0.0 0.00 0.00 0.00 23 1004.2
20260906030022 78 202 0.0 0.0 0.00 0.00 0.00 22 1004.0
20260906024517 78 203 1.0 0.0 0.00 0.00 0.00 23 1003.8
20260906023015 77 207 1.0 0.0 0.00 0.00 0.00 24 1003.6
20260906021619 77 196 0.0 0.0 0.00 0.00 0.00 25 1003.4
20260906020109 80 196 0.0 0.0 0.00 0.00 0.00 24 1003.2
20260906014529 82 196 1.0 0.0 0.00 0.00 0.00 21 1003.0
20260906013127 83 190 1.0 0.0 0.00 0.00 0.00 21 1002.9
20260906011605 84 187 1.0 0.0 0.00 0.00 0.00 20 1003.1
20260906010028 85 219 2.0 0.0 0.00 0.00 0.00 19 1003.3
20260906004621 85 186 2.0 0.0 0.00 0.00 0.00 19 1003.4
20260906003104 86 174 3.0 0.0 0.00 0.00 0.00 19 1003.5
20260906001546 86 197 4.0 0.0 0.00 0.00 0.00 17 1003.5
20260906000120 86 205 2.0 0.0 0.00 0.00 0.00 18 1003.5
20260905234621 87 215 4.0 0.0 0.00 0.00 0.00 17 1003.7
20260905233058 87 215 4.0 0.0 0.00 0.00 0.00 16 1003.7
20260905231528 88 236 4.0 0.0 0.00 0.00 0.00 18 1003.7
20260905230113 87 206 5.0 0.0 0.00 0.00 0.00 17 1004.0
20260905224610 87 217 6.0 0.0 0.00 0.00 0.00 16 1004.1
20260905223036 87 195 5.0 0.0 0.00 0.00 0.00 16 1004.2
20260905221530 88 205 5.0 0.0 0.00 0.00 0.00 18 1004.2
20260905220113 88 199 4.0 0.0 0.00 0.00 0.00 18 1004.2
20260905214540 87 123 5.0 0.0 0.00 0.00 0.00 18 1004.4
20260905213050 86 217 5.0 0.0 0.00 0.00 0.00 18 1004.5
20260905211553 86 221 5.0 0.0 0.00 0.00 0.00 20 1004.8
20260905210033 86 223 6.0 0.0 0.00 0.00 0.00 19 1004.9
20260905204618 85 199 5.0 0.0 0.00 0.00 0.00 19 1005.0
20260905203114 84 173 7.0 0.0 0.00 0.00 0.00 20 1005.2
20260905201551 84 221 6.0 0.0 0.00 0.00 0.00 20 1005.5
20260905200117 83 195 7.0 0.0 0.00 0.00 0.00 21 1005.5
20260905194543 83 214 7.0 0.0 0.00 0.00 0.00 20 1005.6
20260905193129 83 211 7.0 0.0 0.00 0.00 0.00 21 1005.6
20260905191608 82 195 6.0 0.0 0.00 0.00 0.00 21 1006.1
20260905190029 82 190 7.0 0.0 0.00 0.00 0.00 22 1006.3
20260905184625 81 263 5.0 0.0 0.00 0.00 0.00 22 1006.3
20260905183109 80 213 7.0 0.0 0.00 0.00 0.00 23 1006.5
20260905181555 80 205 5.0 0.0 0.00 0.00 0.00 24 1006.6
20260905180037 80 213 5.0 0.0 0.00 0.00 0.00 22 1006.6
20260905174519 79 205 5.0 0.0 0.00 0.00 0.00 23 1007.0
20260905173125 79 175 7.0 0.0 0.00 0.00 0.00 24 1006.9
20260905171625 79 228 6.0 0.0 0.00 0.00 0.00 24 1007.2
20260905170038 78 228 4.0 0.0 0.00 0.00 0.00 24 1007.2
20260905164519 78 248 3.0 0.0 0.00 0.00 0.00 24 1007.3
20260905163121 78 214 4.0 0.0 0.00 0.00 0.00 25 1007.1
20260905161606 77 215 4.0 0.0 0.00 0.00 0.00 25 1007.3
20260905160038 76 205 4.0 0.0 0.00 0.00 0.00 26 1007.2
20260905154619 76 177 4.0 0.0 0.00 0.00 0.00 25 1007.1
20260905153114 73 194 2.0 0.0 0.00 0.00 0.00 27 1007.2
20260905151558 70 207 1.0 0.0 0.00 0.00 0.00 39 1007.2
20260905150039 67 207 0.0 0.0 0.00 0.00 0.00 41 1007.2
20260905144624 64 205 0.0 0.0 0.00 0.00 0.00 43 1007.2
20260905143036 64 205 0.0 0.0 0.00 0.00 0.00 41 1006.9
20260905141623 66 205 1.0 0.0 0.00 0.00 0.00 37 1006.4
20260905134552 68 173 1.0 0.0 0.00 0.00 0.00 30 1006.3
20260905133126 69 210 1.0 0.0 0.00 0.00 0.00 30 1006.1
20260905131610 69 219 1.0 0.0 0.00 0.00 0.00 29 1006.1
20260905130029 69 198 1.0 0.0 0.00 0.00 0.00 28 1005.9
20260905124625 69 207 1.0 0.0 0.00 0.00 0.00 28 1005.7
20260905123021 70 246 0.0 0.0 0.00 0.00 0.00 27 1005.6
20260905121510 71 247 0.0 0.0 0.00 0.00 0.00 26 1005.4
20260905120114 72 248 1.0 0.0 0.00 0.00 0.00 26 1005.4
20260905114556 72 251 2.0 0.0 0.00 0.00 0.00 24 1005.3
20260905113050 72 202 2.0 0.0 0.00 0.00 0.00 25 1005.3
20260905111502 72 192 1.0 0.0 0.00 0.00 0.00 25 1005.2
20260905110119 72 205 1.0 0.0 0.00 0.00 0.00 25 1005.2
20260905104607 73 196 1.0 0.0 0.00 0.00 0.00 26 1005.3